Temperature
14 14 14 14 14 14 14 14 13 13 13 13 13 13 12 12 12 12 12 12 12 12 12 11 11 11 11 11 11 12 12 12 12 12 12 12 12 12 12 12 12 12 12
14 14 14 14 14 13 13 13 13 13 13 13 12 12 12 12 12 12 12 12 12 12 11 11 11 11 11 11 11 11 11 11 11 11 12 12 12 12 12 12 12 12 12
14 14 14 14 13 13 13 13 13 13 13 12 12 12 12 12 12 12 12 12 11 11 11 11 11 11 11 11 11 11 11 11 11 11 11 11 12 12 12 11 11 11 11
14 14 13 13 13 13 13 13 13 13 12 12 12 12 12 12 12 12 11 11 11 11 11 11 11 11 11 11 11 11 11 11 11 11 11 11 11 11 11 11 11 11 11
14 14 13 13 13 13 13 13 13 13 12 12 12 12 12 12 12 12 11 11 11 11 11 11 11 11 11 11 11 11 11 11 10 10 10 11 11 11 11 11 10 10 11
14 14 13 13 13 13 13 13 13 12 12 12 12 12 12 12 12 12 11 11 11 11 11 10 10 10 10 10 10 10 10 10 10 10 10 10 10 10 10 10 10 10 10
14 14 13 13 13 13 13 13 12 12 12 12 12 12 12 11 11 11 11 11 11 11 10 10 10 10 10 10 10 10 10 10 10 10 10 10 10 10 10 10 10 10 10
14 13 13 13 13 13 13 13 12 12 12 12 11 11 11 11 11 11 11 11 11 11 10 10 10 10 10 10 10 10 10 10 10 10 10 10 10 10 10 10 9 10 10
14 13 13 13 13 13 13 12 12 12 12 12 12 12 11 11 11 11 11 11 11 10 10 10 10 10 10 10 10 10 10 10 10 10 10 10 10 10 10 9 9 9 9
14 13 13 13 13 13 13 12 12 12 12 12 12 12 12 11 11 11 11 11 10 10 10 10 10 10 10 10 10 10 9 10 9 9 9 10 10 10 9 9 9 9 9
14 13 13 13 13 13 13 13 12 12 12 12 12 12 12 11 11 11 11 11 10 10 10 10 10 10 10 10 9 9 9 9 9 9 9 9 9 9 9 9 9 9 9
14 13 13 13 13 13 13 13 12 12 12 12 12 12 12 11 11 11 11 11 10 10 10 10 10 10 10 10 9 9 9 9 9 9 9 9 9 9 9 9 9 9 9
13 13 13 13 13 13 13 13 12 12 12 12 12 12 12 11 11 11 11 11 10 10 10 10 10 10 10 10 10 9 9 9 9 9 9 9 9 9 9 9 9 9 9
13 13 13 13 13 13 13 13 12 12 12 12 12 12 12 11 11 11 11 10 10 10 10 10 10 10 10 10 10 10 9 9 9 9 9 9 9 9 9 9 9 9 9
13 13 13 13 13 13 13 13 13 13 13 12 12 12 11 11 11 11 11 11 10 10 10 10 10 10 10 10 10 9 9 9 9 9 9 9 9 9 9 9 9 9 8
13 13 13 13 13 13 13 13 13 13 13 12 12 12 12 11 11 11 11 11 11 11 10 10 10 10 10 10 10 9 9 9 9 9 9 9 9 9 9 9 9 8 8
13 13 13 13 13 13 13 13 13 13 13 12 12 12 12 12 11 11 11 11 11 11 10 10 10 10 10 9 9 9 9 9 9 9 9 9 9 9 9 9 8 8 8
13 13 13 13 13 13 13 13 13 13 13 13 12 12 12 12 11 11 11 11 11 11 10 10 10 10 10 9 9 9 9 9 9 9 9 9 9 9 8 8 8 8 8
13 13 13 14 13 14 14 14 13 13 13 13 13 12 12 12 12 11 11 11 11 10 10 10 10 10 9 9 9 9 9 9 9 9 8 8 8 8 8 8 8 8 8
13 14 14 14 14 14 14 14 14 13 13 13 12 12 12 12 11 11 11 11 10 10 10 10 10 9 9 9 9 9 9 8 8 8 8 8 8 8 8 8 8 8 8
14 14 14 14 14 14 14 14 14 14 13 13 13 12 12 12 11 11 11 11 10 10 10 10 10 10 9 9 9 8 8 8 8 8 8 8 8 8 8 8 8 8 8
14 14 14 14 14 14 14 14 14 14 13 13 13 13 12 12 11 11 11 10 10 10 10 10 9 9 9 9 8 8 8 8 8 8 8 8 8 7 7 7 7 8 7
14 14 14 14 14 14 14 14 14 13 13 13 13 12 12 12 11 11 11 10 10 10 10 9 9 9 9 8 8 8 8 8 8 8 8 8 7 7 7 7 7 7 7
13 14 14 14 14 14 14 14 14 13 13 13 13 12 12 11 11 11 10 10 10 10 9 9 9 9 9 8 8 8 8 8 7 7 7 7 7 7 7 7 7 7 7
13 14 14 14 14 14 14 14 13 13 13 13 12 12 12 11 11 10 10 10 10 9 9 9 9 9 9 8 8 8 8 7 7 7 7 7 7 7 7 7 7 7 7
13 13 14 14 13 13 13 13 13 13 13 13 12 12 11 11 11 10 10 10 10 9 9 9 8 8 8 8 8 8 8 7 7 7 7 7 7 7 6 6 6 7 7
Wind_Speed
0 1 2 1 1 1 1 1 1 1 1 1 1 1 1 1 1 2 3 2 3 3 3 3 3 3 4 4 3 3 3 3 4 5 3 3 3 4 4 5 6 6 7
0 0 1 1 1 1 1 1 1 1 1 1 1 2 2 2 2 3 3 3 3 3 3 3 4 4 4 4 3 3 3 3 3 5 5 3 4 3 4 4 4 5 5
1 1 1 0 1 1 1 1 1 1 1 1 2 2 2 2 2 3 3 3 3 3 2 3 3 4 5 4 3 3 3 4 3 4 5 3 2 3 2 2 3 2 4
1 1 0 0 1 1 1 1 1 1 1 1 1 2 2 2 3 3 4 3 4 3 2 2 2 3 4 5 4 3 3 3 3 3 3 3 2 2 1 1 1 2 2
0 0 1 1 1 1 1 1 1 1 1 1 1 2 2 2 3 4 4 4 4 4 4 3 2 2 3 3 4 4 4 3 3 3 4 3 2 2 2 1 1 2 2
0 0 1 0 1 1 0 0 0 1 2 1 1 1 2 3 4 5 4 4 4 4 5 5 4 2 3 4 4 4 3 3 3 3 3 3 3 3 2 2 2 2 2
0 0 0 0 1 1 1 1 1 1 2 2 1 1 1 2 2 3 4 4 3 4 4 4 6 5 5 4 4 4 4 4 5 3 4 4 4 3 2 3 3 3 4
0 1 1 1 1 1 1 1 1 1 2 2 1 1 1 2 1 2 4 3 3 3 3 3 3 4 5 5 5 4 3 2 2 2 2 4 4 3 3 3 4 4 4
1 1 1 1 1 1 1 1 1 2 2 2 2 1 1 1 1 2 3 3 3 3 3 2 3 2 3 5 4 4 4 4 4 4 4 5 6 6 4 3 4 3 4
2 2 1 1 1 1 1 2 2 2 2 2 2 2 1 1 2 0 2 3 3 4 3 2 2 3 2 3 3 4 5 5 5 5 4 5 4 4 5 4 4 4 4
2 2 1 1 1 1 2 2 2 2 2 3 3 2 2 2 3 2 1 2 4 4 4 2 1 2 3 5 5 4 6 6 5 4 4 3 3 3 3 3 3 3 4
1 2 1 1 2 2 1 2 2 3 3 4 3 2 1 2 2 3 4 5 5 4 4 4 2 3 5 6 5 6 7 6 4 4 3 3 3 3 3 3 4 4 5
1 2 2 2 2 2 2 2 3 3 3 3 2 1 1 1 2 2 4 6 6 4 5 7 8 8 7 6 7 8 5 3 3 4 4 4 3 4 3 3 3 4 4
2 3 3 2 3 2 2 2 2 2 2 2 2 2 2 1 2 1 2 3 5 5 5 8 9 9 7 6 5 4 3 3 3 4 4 4 3 3 3 2 3 3 2
2 3 3 3 3 2 2 2 2 1 0 1 2 2 2 2 1 2 2 3 3 4 5 5 4 3 3 2 2 3 3 2 3 4 4 4 3 3 3 2 2 2 3
3 3 3 2 2 3 3 2 2 3 3 3 2 1 1 1 2 3 4 6 7 6 4 4 3 3 3 3 3 3 2 2 3 3 3 3 3 3 3 2 2 3 3
3 3 4 3 3 3 3 3 3 2 3 4 5 5 5 5 4 5 6 7 8 4 2 3 3 3 3 4 3 3 3 3 2 2 3 2 3 3 3 3 3 3 3
3 3 4 4 3 3 3 3 3 3 3 3 6 9 10 9 8 7 6 4 4 2 3 3 3 3 3 3 3 3 3 3 3 3 3 3 3 3 3 3 3 3 3
3 3 3 4 4 4 3 4 4 2 2 2 2 3 7 8 8 7 4 3 4 4 3 3 3 3 3 3 3 3 3 3 3 3 3 4 4 4 3 3 3 4 4
4 6 6 5 5 4 4 4 4 2 2 1 1 1 1 2 2 3 3 3 3 3 3 3 3 2 2 3 3 3 3 3 4 4 4 4 4 4 3 4 3 3 3
5 5 7 6 5 4 4 4 3 3 2 2 1 1 2 2 2 3 2 2 2 3 3 3 2 2 2 3 3 4 4 4 4 4 4 4 5 4 4 3 3 4 4
6 5 4 4 3 3 4 4 4 3 3 3 1 1 4 3 2 2 2 2 2 2 2 2 2 2 3 3 3 4 4 5 5 5 5 5 4 4 4 3 4 3 3
7 6 4 4 4 3 4 5 3 3 3 3 2 1 2 2 2 1 1 2 3 2 1 1 2 2 3 3 3 3 3 4 4 5 5 5 5 4 4 4 4 5 4
7 6 5 4 4 4 4 3 3 3 3 2 2 1 1 2 2 1 1 1 2 2 1 1 1 2 3 3 3 4 4 5 5 5 6 6 5 5 4 4 4 4 4
7 6 5 4 4 4 3 3 3 3 3 2 1 1 2 1 1 1 1 1 1 1 1 1 1 2 3 4 4 4 5 6 6 6 5 4 5 5 5 5 4 4 4
6 6 5 4 3 3 3 3 3 2 2 1 1 1 1 1 1 1 1 1 1 1 1 1 2 3 4 4 3 4 4 6 7 8 6 4 4 4 5 4 5 4 4
Wind_Direction
90 354 18 9 337 327 321 337 330 331 334 343 327 307 285 291 320 317 302 305 309 310 310 316 310 307 313 309 298 288 275 266 272 283 284 274 262 258 246 231 233 224 221
186 75 33 12 343 327 314 304 321 339 311 318 313 308 304 320 327 313 315 319 309 315 321 327 324 322 320 311 306 300 288 279 272 281 283 270 258 254 243 232 244 243 225
139 103 79 31 344 323 329 339 353 2 352 323 313 309 319 338 331 316 310 308 306 308 318 325 329 337 335 325 314 309 301 300 293 288 286 290 280 266 254 260 261 259 242
109 113 96 11 344 334 359 13 17 0 344 341 336 326 325 344 338 321 318 317 313 307 308 311 334 356 346 330 325 324 317 315 315 310 292 296 299 297 277 274 303 292 274
62 107 90 9 10 -0 20 21 357 323 323 344 331 330 331 330 334 343 334 324 328 329 336 329 343 0 352 334 329 334 326 319 317 315 305 314 320 324 316 303 307 294 283
320 350 93 4 350 331 348 310 336 339 333 339 325 315 320 335 3 8 353 329 328 339 343 336 324 337 329 305 300 301 301 292 299 306 314 317 313 312 312 306 307 295 287
218 306 60 306 297 294 303 345 331 319 309 299 301 317 354 10 355 356 344 323 324 330 329 325 323 338 342 329 319 302 290 278 262 270 301 304 302 302 297 295 290 286 277
267 285 293 283 270 267 277 295 285 288 283 282 287 308 316 333 5 355 341 311 303 302 304 305 314 330 335 339 334 335 331 335 288 269 282 292 297 298 284 276 276 278 277
281 290 304 300 290 282 296 307 291 284 278 274 272 269 287 344 67 356 329 300 296 296 292 309 325 331 346 338 329 324 324 320 308 286 267 272 282 287 284 286 283 280 282
277 290 301 315 311 313 287 275 275 267 265 275 272 252 244 203 167 302 316 305 310 312 312 328 342 327 329 323 310 306 305 301 307 309 299 287 281 279 272 252 263 273 277
274 283 297 293 260 236 243 244 254 262 268 268 265 245 202 194 177 189 242 295 311 315 319 322 335 290 293 296 293 288 286 293 297 293 291 297 298 291 271 251 244 255 266
278 283 279 265 275 269 249 260 255 261 261 256 257 253 202 176 163 200 224 253 288 306 310 322 326 302 294 294 290 283 291 303 300 301 303 305 298 289 278 263 251 248 250
297 285 277 269 260 257 246 239 247 252 263 269 266 264 249 151 151 192 237 261 278 285 303 311 306 293 289 279 262 268 278 284 292 297 297 293 288 281 274 268 262 256 256
286 282 268 253 246 242 242 248 249 263 277 304 322 325 321 21 73 12 287 282 288 287 296 298 292 278 271 271 280 273 254 265 271 282 292 291 288 286 286 284 277 274 279
276 277 274 266 253 228 227 255 258 323 107 354 350 339 331 354 345 303 286 298 303 311 313 294 293 296 294 282 284 286 276 266 269 273 280 293 301 302 303 301 301 300 289
271 269 270 265 235 227 217 227 228 216 186 177 187 230 293 181 233 287 297 294 297 307 308 292 302 309 310 313 307 299 286 285 277 276 283 293 302 308 313 320 319 306 295
258 269 278 277 258 243 245 235 223 218 216 228 237 235 228 232 249 271 289 303 302 303 287 288 297 305 313 317 312 309 305 298 289 293 305 310 314 316 315 309 304 303 300
260 258 270 276 278 276 275 265 245 219 208 220 233 232 233 236 244 257 281 315 307 294 287 290 296 302 307 309 312 320 324 328 337 337 335 327 316 311 312 306 299 302 302
263 266 271 281 277 275 279 281 274 264 254 208 204 218 231 239 247 254 255 267 283 297 298 297 301 311 319 325 324 325 336 344 338 335 339 330 320 314 314 310 303 307 300
249 250 255 267 272 269 271 277 280 280 270 252 231 214 180 210 242 249 233 246 269 288 300 305 304 311 322 330 331 331 343 349 338 334 336 327 318 311 308 305 304 302 294
267 246 230 244 261 273 279 281 281 277 281 278 236 177 161 224 264 279 275 250 264 278 285 292 302 324 340 339 341 341 346 349 349 339 331 325 323 323 320 312 304 303 308
285 271 257 266 273 275 279 280 283 286 284 280 265 196 179 218 264 291 309 315 300 291 294 312 336 351 360 356 350 349 356 355 347 335 326 321 319 316 315 318 322 317 316
273 274 268 269 274 255 258 264 269 282 289 282 279 265 211 247 278 303 324 334 316 303 309 342 348 356 10 3 358 12 11 351 336 328 326 320 320 317 316 315 319 326 324
283 280 273 275 277 271 268 275 271 272 286 293 293 280 254 264 281 280 278 272 299 315 332 16 356 18 27 23 21 28 16 351 333 325 320 311 311 313 319 320 319 326 323
282 283 281 278 283 288 294 298 294 288 279 275 282 264 239 235 277 284 279 281 291 306 339 8 18 33 25 30 36 32 13 358 350 337 318 308 311 316 323 326 332 329 328
287 296 296 290 289 299 306 308 303 300 295 301 317 326 300 283 263 279 334 347 327 329 355 8 22 39 27 27 45 44 21 360 348 339 327 318 320 325 332 332 330 332 335
Height
1487 1487 1486 1486 1485 1485 1485 1484 1484 1483 1483 1482 1481 1481 1480 1479 1479 1478 1477 1476 1475 1473 1472 1470 1469 1467 1465 1464 1463 1462 1462 1462 1461 1461 1461 1461 1461 1460 1460 1460 1460 1460 1460
1487 1486 1486 1485 1485 1484 1484 1483 1483 1482 1482 1481 1480 1479 1479 1478 1477 1476 1475 1474 1473 1471 1470 1468 1467 1465 1463 1461 1460 1459 1459 1459 1459 1458 1457 1457 1457 1456 1456 1456 1456 1457 1457
1486 1485 1485 1484 1484 1483 1483 1483 1482 1481 1481 1480 1479 1478 1477 1476 1475 1474 1473 1472 1471 1470 1468 1467 1465 1463 1461 1459 1458 1457 1457 1457 1456 1456 1455 1454 1453 1453 1453 1453 1453 1453 1453
1486 1485 1484 1484 1483 1483 1482 1481 1481 1480 1480 1479 1478 1477 1476 1475 1473 1472 1471 1470 1469 1468 1466 1465 1463 1461 1460 1458 1457 1456 1455 1454 1454 1453 1452 1451 1451 1450 1450 1450 1450 1450 1450
1485 1484 1484 1483 1482 1482 1481 1480 1480 1479 1479 1478 1477 1476 1475 1474 1472 1471 1470 1469 1467 1466 1465 1463 1462 1460 1459 1457 1455 1454 1453 1452 1451 1451 1450 1449 1448 1448 1448 1447 1447 1447 1447
1484 1483 1483 1482 1482 1481 1480 1479 1479 1478 1477 1476 1475 1474 1473 1472 1471 1470 1469 1467 1466 1464 1463 1462 1460 1458 1457 1455 1454 1452 1451 1450 1449 1449 1447 1447 1446 1446 1445 1445 1445 1444 1444
1483 1483 1482 1481 1480 1480 1479 1478 1477 1476 1476 1475 1474 1473 1472 1471 1469 1468 1467 1465 1464 1462 1461 1459 1458 1457 1455 1453 1452 1450 1449 1449 1448 1447 1446 1445 1444 1444 1443 1442 1442 1442 1441
1482 1482 1481 1480 1479 1478 1477 1476 1475 1475 1474 1473 1473 1471 1470 1469 1468 1466 1465 1464 1462 1461 1459 1458 1456 1455 1453 1452 1450 1448 1447 1446 1446 1445 1444 1443 1443 1442 1441 1441 1440 1439 1439
1481 1480 1480 1479 1478 1477 1476 1475 1474 1474 1473 1472 1471 1470 1469 1467 1466 1465 1464 1462 1461 1459 1458 1457 1455 1453 1452 1450 1448 1447 1446 1445 1444 1444 1443 1442 1441 1440 1439 1438 1437 1437 1436
1480 1479 1478 1477 1477 1476 1475 1474 1473 1473 1472 1471 1470 1469 1467 1466 1464 1463 1462 1461 1459 1458 1457 1456 1454 1452 1450 1449 1447 1446 1445 1444 1443 1442 1441 1439 1438 1437 1436 1436 1435 1434 1433
1478 1478 1477 1476 1475 1474 1473 1473 1472 1471 1471 1469 1468 1467 1466 1464 1463 1462 1461 1460 1458 1457 1456 1454 1453 1451 1449 1448 1446 1445 1444 1442 1441 1440 1439 1437 1436 1434 1433 1433 1432 1431 1431
1476 1476 1475 1474 1474 1473 1472 1471 1471 1470 1469 1468 1467 1466 1465 1463 1462 1461 1459 1458 1457 1456 1454 1453 1452 1450 1448 1447 1445 1444 1442 1441 1439 1438 1437 1435 1434 1432 1431 1430 1429 1428 1427
1474 1474 1473 1473 1472 1471 1471 1470 1469 1469 1468 1467 1466 1465 1464 1462 1461 1459 1458 1457 1456 1454 1453 1452 1450 1448 1447 1445 1444 1442 1441 1439 1438 1436 1435 1433 1432 1430 1429 1428 1426 1425 1424
1472 1472 1471 1471 1470 1469 1469 1468 1468 1467 1467 1466 1465 1464 1463 1462 1460 1458 1457 1455 1454 1452 1451 1450 1448 1447 1445 1444 1442 1441 1439 1438 1436 1435 1433 1431 1430 1428 1427 1425 1424 1423 1421
1471 1470 1469 1469 1468 1468 1467 1467 1466 1466 1465 1465 1464 1463 1462 1460 1459 1457 1455 1454 1452 1451 1450 1448 1447 1445 1444 1442 1441 1439 1438 1436 1434 1433 1431 1429 1428 1426 1425 1423 1422 1420 1419
1469 1468 1468 1467 1467 1466 1466 1465 1464 1464 1463 1462 1462 1461 1460 1459 1457 1456 1454 1453 1451 1450 1448 1447 1446 1444 1443 1441 1440 1438 1436 1435 1433 1432 1430 1428 1426 1425 1423 1421 1420 1418 1416
1467 1467 1467 1466 1466 1465 1464 1463 1462 1461 1460 1460 1459 1459 1458 1456 1455 1454 1452 1451 1450 1449 1447 1446 1444 1443 1441 1440 1438 1437 1435 1434 1432 1430 1428 1427 1425 1423 1421 1419 1417 1416 1414
1466 1466 1465 1465 1464 1463 1462 1461 1460 1459 1458 1457 1456 1456 1455 1454 1453 1452 1451 1449 1448 1447 1446 1444 1443 1441 1440 1438 1437 1435 1434 1432 1430 1429 1427 1425 1423 1421 1419 1417 1415 1413 1412
1464 1464 1463 1463 1462 1461 1460 1459 1458 1457 1456 1455 1454 1453 1453 1452 1451 1450 1449 1448 1446 1445 1444 1443 1441 1440 1438 1437 1435 1434 1432 1430 1428 1426 1424 1422 1421 1419 1417 1414 1413 1411 1409
1462 1462 1461 1460 1460 1459 1458 1457 1456 1455 1454 1453 1453 1452 1451 1450 1449 1448 1447 1446 1445 1444 1442 1441 1440 1438 1436 1435 1433 1432 1430 1428 1426 1424 1422 1420 1418 1416 1414 1412 1410 1409 1407
1460 1459 1459 1458 1458 1457 1457 1456 1455 1454 1453 1452 1451 1450 1449 1448 1447 1446 1446 1444 1443 1441 1440 1439 1438 1436 1434 1433 1431 1429 1428 1426 1424 1422 1420 1417 1415 1413 1412 1410 1409 1407 1406
1458 1457 1457 1456 1455 1455 1454 1453 1453 1452 1451 1450 1449 1448 1447 1446 1445 1444 1443 1442 1441 1439 1438 1437 1436 1434 1432 1431 1429 1427 1425 1423 1421 1419 1417 1415 1413 1411 1410 1408 1407 1405 1404
1455 1454 1454 1453 1453 1452 1451 1451 1450 1449 1449 1448 1447 1446 1445 1444 1443 1442 1441 1440 1439 1437 1436 1435 1433 1431 1430 1428 1427 1425 1423 1421 1419 1417 1415 1413 1411 1409 1408 1407 1405 1404 1402
1453 1452 1451 1451 1450 1449 1448 1448 1447 1447 1446 1445 1444 1443 1442 1441 1440 1439 1438 1437 1436 1435 1434 1432 1431 1429 1427 1426 1424 1422 1420 1419 1417 1415 1413 1411 1410 1408 1407 1405 1403 1402 1401
1450 1449 1448 1448 1447 1447 1446 1445 1445 1444 1443 1442 1441 1441 1440 1439 1438 1436 1435 1434 1433 1432 1431 1430 1428 1426 1425 1423 1422 1420 1418 1416 1415 1413 1411 1409 1408 1407 1405 1403 1402 1400 1399
1447 1447 1446 1445 1444 1444 1443 1442 1442 1441 1440 1440 1439 1438 1437 1436 1435 1434 1433 1432 1431 1430 1429 1427 1426 1424 1422 1421 1419 1417 1416 1414 1413 1411 1409 1408 1406 1405 1404 1402 1400 1399 1398